Empire, CO

11:11 AM MDT on July 28, 2016 (GMT -0600)
Berthoud Pass

Weather History for K0CO - November, 2013

Change the Weather History Date:

Monday, November 11, 2013

  Actual Average (KCCU) Record (KCCU)
Temperature  
Mean Temperature 24 °F -  
Max Temperature 30 °F - 41 °F (2007)
Min Temperature 19 °F - 5 °F (2002)
Degree Days  
Heating Degree Days 40    
Month to date heating degree days  
Cooling Degree Days 0    
Month to date cooling degree days  
Moisture  
Dew Point 14 °F    
Average Humidity 65    
Maximum Humidity 69    
Minimum Humidity 59    
Precipitation  
Precipitation 0.00 in - 0.06 in (2002)
Sea Level Pressure  
Sea Level Pressure 30.53 in    
Wind  
Wind Speed 25 mph (NW)    
Max Wind Speed 39 mph    
Max Gust Speed 46 mph    
Visibility 10 miles    
Events      
T = Trace of Precipitation, MM = Missing Value Source: NWS Daily Summary

Daily Weather History Graph

Daily Weather History Graph

Search for Another Location

Airport or City:

Trip Planner

Search our weather history database for the weather conditions in past years. The results will help you decide how hot, cold, wet, or windy it might be!

Date:

Astronomy

Nov. 11, 2013 Rise Set
Actual Time 6:43 AM MST 4:50 PM MST
Civil Twilight 6:14 AM MST 5:18 PM MST
Nautical Twilight 5:42 AM MST 5:51 PM MST
Astronomical Twilight 5:10 AM MST 6:23 PM MST
Moon 1:31 PM MST (11/11) 12:32 AM MST (11/11)
Length of Visible Light 11h 04m
Length of Day
10h 06m
Waxing Gibbous, 67% of the Moon is Illuminated
Nov 11
Waxing Gibbous
Nov 17
Full
Nov 25
Last Quarter
Dec 2
New
Dec 9
First Quarter

Hourly Weather History & Observations

Time (MST) Temp. Windchill Dew Point Humidity Pressure Visibility Wind Dir Wind Speed Gust Speed Precip Events Conditions
12:15 AM 21.2 °F 4.5 °F 12.2 °F 68% 30.46 in 10.0 mi NW 24.2 mph 36.8 mph N/A   Clear
12:35 AM 21.2 °F 3.9 °F 10.4 °F 63% 30.45 in 10.0 mi NW 26.5 mph 32.2 mph N/A   Clear
12:55 AM 21.2 °F 2.7 °F 12.2 °F 68% 30.43 in 10.0 mi WNW 31.1 mph 38.0 mph N/A   Clear
1:15 AM 23.0 °F 4.9 °F 12.2 °F 63% 30.44 in 10.0 mi WNW 32.2 mph 40.3 mph N/A   Clear
1:35 AM 21.2 °F 3.3 °F 12.2 °F 68% 30.43 in 10.0 mi WNW 28.8 mph 40.3 mph N/A   Clear
1:55 AM 21.2 °F 1.9 °F 12.2 °F 68% 30.42 in 10.0 mi WNW 34.5 mph 42.6 mph N/A   Clear
2:15 AM 21.2 °F 1.7 °F 12.2 °F 68% 30.42 in 10.0 mi WNW 35.7 mph 42.6 mph N/A   Clear
2:35 AM 21.2 °F 1.9 °F 12.2 °F 68% 30.41 in 10.0 mi WNW 34.5 mph 42.6 mph N/A   Clear
2:55 AM 21.2 °F 1.7 °F 12.2 °F 68% 30.40 in 10.0 mi WNW 35.7 mph 46.0 mph N/A   Clear
3:15 AM 21.2 °F 1.4 °F 10.4 °F 63% 30.40 in 10.0 mi WNW 36.8 mph 42.6 mph N/A   Clear
3:35 AM 21.2 °F 2.4 °F 10.4 °F 63% 30.42 in 10.0 mi WNW 32.2 mph 42.6 mph N/A   Clear
3:55 AM 21.2 °F 1.4 °F 10.4 °F 63% 30.41 in 10.0 mi WNW 36.8 mph - N/A   Clear
4:15 AM 21.2 °F 0.9 °F 10.4 °F 63% 30.40 in 10.0 mi NW 39.1 mph 43.7 mph N/A   Clear
4:35 AM 21.2 °F 1.4 °F 10.4 °F 63% 30.41 in 10.0 mi NW 36.8 mph 42.6 mph N/A   Clear
4:55 AM 21.2 °F 1.2 °F 10.4 °F 63% 30.42 in 10.0 mi WNW 38.0 mph 42.6 mph N/A   Clear
5:15 AM 21.2 °F 1.9 °F 10.4 °F 63% 30.43 in 10.0 mi WNW 34.5 mph 46.0 mph N/A   Clear
5:35 AM 21.2 °F 3.0 °F 10.4 °F 63% 30.44 in 10.0 mi NW 29.9 mph 42.6 mph N/A   Clear
5:55 AM 21.2 °F 2.7 °F 10.4 °F 63% 30.45 in 10.0 mi NW 31.1 mph 39.1 mph N/A   Clear
6:15 AM 19.4 °F 1.1 °F 8.6 °F 63% 30.45 in 10.0 mi NW 27.6 mph 35.7 mph N/A   Clear
6:35 AM 19.4 °F -0.8 °F 10.4 °F 68% 30.44 in 10.0 mi NW 35.7 mph 43.7 mph N/A   Clear
6:55 AM 19.4 °F -0.0 °F 10.4 °F 68% 30.46 in 10.0 mi NNW 32.2 mph 42.6 mph N/A   Clear
7:15 AM 19.4 °F -0.0 °F 10.4 °F 68% 30.46 in 10.0 mi NW 32.2 mph 40.3 mph N/A   Clear
7:35 AM 19.4 °F 1.1 °F 8.6 °F 63% 30.48 in 10.0 mi NNW 27.6 mph 36.8 mph N/A   Clear
7:55 AM 19.4 °F 6.6 °F 8.6 °F 63% 30.50 in 10.0 mi North 12.7 mph 28.8 mph N/A   Clear
8:15 AM 21.2 °F 8.3 °F 10.4 °F 63% 30.52 in 10.0 mi North 13.8 mph 27.6 mph N/A   Clear
8:35 AM 21.2 °F 8.3 °F 10.4 °F 63% 30.52 in 10.0 mi NNW 13.8 mph 27.6 mph N/A   Clear
8:55 AM 21.2 °F 9.5 °F 12.2 °F 68% 30.52 in 10.0 mi North 11.5 mph 27.6 mph N/A   Clear
9:15 AM 23.0 °F 9.6 °F 12.2 °F 63% 30.52 in 10.0 mi North 16.1 mph 29.9 mph N/A   Clear
9:35 AM 23.0 °F 10.6 °F 12.2 °F 63% 30.54 in 10.0 mi North 13.8 mph 29.9 mph N/A   Clear
9:55 AM 23.0 °F 13.1 °F 14.0 °F 68% 30.55 in 10.0 mi North 9.2 mph 27.6 mph N/A   Clear
10:15 AM 23.0 °F 11.1 °F 14.0 °F 68% 30.55 in 10.0 mi North 12.7 mph 25.3 mph N/A   Clear
10:35 AM 24.8 °F 12.4 °F 14.0 °F 64% 30.56 in 10.0 mi NNW 15.0 mph 26.5 mph N/A   Clear
10:55 AM 26.6 °F 15.2 °F 15.8 °F 64% 30.56 in 10.0 mi NNW 13.8 mph 25.3 mph N/A   Clear
11:15 AM 26.6 °F 14.7 °F 15.8 °F 64% 30.56 in 10.0 mi NNW 15.0 mph 24.2 mph N/A   Clear
11:35 AM 26.6 °F 13.8 °F 17.6 °F 69% 30.56 in 10.0 mi NNW 17.3 mph 26.5 mph N/A   Clear
11:55 AM 28.4 °F 15.4 °F 17.6 °F 64% 30.56 in 10.0 mi NNW 19.6 mph 25.3 mph N/A   Clear
12:15 PM 28.4 °F 17.5 °F 17.6 °F 64% 30.57 in 10.0 mi NNW 13.8 mph 21.9 mph N/A   Clear
12:35 PM 28.4 °F 19.7 °F 17.6 °F 64% 30.57 in 10.0 mi NNW 9.2 mph 18.4 mph N/A   Clear
12:55 PM 28.4 °F 23.3 °F 17.6 °F 64% 30.56 in 10.0 mi North 4.6 mph - N/A   Clear
1:15 PM 28.4 °F 21.2 °F 19.4 °F 69% 30.56 in 10.0 mi NNW 6.9 mph - N/A   Clear
1:35 PM 28.4 °F 18.5 °F 19.4 °F 69% 30.56 in 10.0 mi NNW 11.5 mph 17.3 mph N/A   Clear
1:55 PM 28.4 °F 20.4 °F 19.4 °F 69% 30.56 in 10.0 mi NNW 8.1 mph 18.4 mph N/A   Clear
2:15 PM 28.4 °F 17.5 °F 19.4 °F 69% 30.56 in 10.0 mi NW 13.8 mph - N/A   Clear
2:35 PM 30.2 °F 19.3 °F 19.4 °F 64% 30.57 in 10.0 mi NW 15.0 mph 19.6 mph N/A   Clear
2:55 PM 28.4 °F 17.0 °F 19.4 °F 69% 30.57 in 10.0 mi NW 15.0 mph - N/A   Clear
3:15 PM 28.4 °F 17.0 °F 19.4 °F 69% 30.57 in 10.0 mi NNW 15.0 mph - N/A   Clear
3:35 PM 28.4 °F 16.2 °F 19.4 °F 69% 30.57 in 10.0 mi NW 17.3 mph 21.9 mph N/A   Clear
3:55 PM 30.2 °F 17.1 °F 19.4 °F 64% 30.56 in 10.0 mi WNW 21.9 mph - N/A   Clear
4:15 PM 30.2 °F 17.8 °F 19.4 °F 64% 30.57 in 10.0 mi WNW 19.6 mph - N/A   Clear
4:35 PM 28.4 °F 15.4 °F 17.6 °F 64% 30.57 in 10.0 mi WNW 19.6 mph 25.3 mph N/A   Clear
4:55 PM 28.4 °F 15.1 °F 17.6 °F 64% 30.57 in 10.0 mi WNW 20.7 mph - N/A   Clear
5:15 PM 26.6 °F 13.4 °F 17.6 °F 69% 30.57 in 10.0 mi WNW 18.4 mph - N/A   Clear
5:35 PM 26.6 °F 13.1 °F 17.6 °F 69% 30.59 in 10.0 mi WNW 19.6 mph 29.9 mph N/A   Clear
5:55 PM 26.6 °F 13.8 °F 17.6 °F 69% 30.59 in 10.0 mi WNW 17.3 mph 28.8 mph N/A   Scattered Clouds
6:15 PM 26.6 °F 13.1 °F 17.6 °F 69% 30.59 in 10.0 mi West 19.6 mph 29.9 mph N/A   Clear
6:35 PM 26.6 °F 13.4 °F 15.8 °F 64% 30.60 in 10.0 mi WNW 18.4 mph 25.3 mph N/A   Clear
6:55 PM 24.8 °F 11.1 °F 14.0 °F 64% 30.60 in 10.0 mi WNW 18.4 mph - N/A   Clear
7:15 PM 24.8 °F 10.7 °F 14.0 °F 64% 30.60 in 10.0 mi NW 19.6 mph - N/A   Clear
7:35 PM 24.8 °F 11.5 °F 14.0 °F 64% 30.61 in 10.0 mi NW 17.3 mph - N/A   Clear
7:55 PM 23.0 °F 8.3 °F 14.0 °F 68% 30.61 in 10.0 mi NW 19.6 mph - N/A   Clear
8:15 PM 23.0 °F 7.2 °F 14.0 °F 68% 30.61 in 10.0 mi NW 23.0 mph 27.6 mph N/A   Clear
8:35 PM 26.6 °F 12.4 °F 14.0 °F 59% 30.61 in 10.0 mi WNW 21.9 mph 28.8 mph N/A   Clear
8:55 PM 24.8 °F 10.0 °F 14.0 °F 64% 30.62 in 10.0 mi WNW 21.9 mph 25.3 mph N/A   Clear
9:15 PM 26.6 °F 11.7 °F 14.0 °F 59% 30.62 in 10.0 mi WNW 24.2 mph 32.2 mph N/A   Clear
9:35 PM 26.6 °F 11.7 °F 14.0 °F 59% 30.62 in 10.0 mi WNW 24.2 mph 32.2 mph N/A   Clear
9:55 PM 24.8 °F 11.1 °F 14.0 °F 64% 30.63 in 10.0 mi NW 18.4 mph 25.3 mph N/A   Clear
10:15 PM 23.0 °F 8.0 °F 14.0 °F 68% 30.63 in 10.0 mi NW 20.7 mph - N/A   Clear
10:35 PM 23.0 °F 8.0 °F 14.0 °F 68% 30.63 in 10.0 mi NW 20.7 mph - N/A   Clear
10:55 PM 23.0 °F 8.7 °F 14.0 °F 68% 30.63 in 10.0 mi NW 18.4 mph 27.6 mph N/A   Clear
11:15 PM 23.0 °F 9.2 °F 12.2 °F 63% 30.64 in 10.0 mi WNW 17.3 mph 24.2 mph N/A   Clear
11:35 PM 23.0 °F 8.0 °F 12.2 °F 63% 30.64 in 10.0 mi WNW 20.7 mph - N/A   Clear
11:55 PM 23.0 °F 8.3 °F 12.2 °F 63% 30.64 in 10.0 mi WNW 19.6 mph 26.5 mph N/A   Clear